Sigfox identifier Datetime Temperature Humidity SNR
002F1E77 2019-04-23 14:46:15 16.1 33 23.6
002F1E77 2019-04-23 14:11:07 16.1 33 23.7
002F1E77 2019-04-23 13:35:59 16.1 33 23.8
002F1E77 2019-04-23 13:00:50 15.9 33 23.9
002F1E77 2019-04-23 12:25:41 15.9 33 24.1
002F1E77 2019-04-23 11:50:31 15.8 33 24.2
002F1E77 2019-04-23 11:15:22 15.7 32 24.3
002F1E77 2019-04-23 10:40:13 15.7 32 24.3
002F1E77 2019-04-23 10:05:05 15.7 32 24.4
002F1E77 2019-04-23 09:29:55 15.7 32 24.3
002F1E77 2019-04-23 08:54:47 15.7 32 24.4
002F1E77 2019-04-23 08:19:38 15.7 32 24.5
002F1E77 2019-04-23 07:44:30 15.7 32 24.6
002F1E77 2019-04-23 07:09:23 15.7 32 24.6
002F1E77 2019-04-23 06:34:16 15.7 32 24.6
002F1E77 2019-04-23 05:59:08 15.7 32 24.6
002F1E77 2019-04-23 05:24:00 15.7 32 24.7
002F1E77 2019-04-23 04:48:53 15.7 32 24.6
002F1E77 2019-04-23 04:13:44 15.7 32 24.6
002F1E77 2019-04-23 03:38:36 15.7 32 24.6
002F1E77 2019-04-23 03:03:29 15.7 32 24.6
002F1E77 2019-04-23 02:28:22 15.7 32 24.7
002F1E77 2019-04-23 01:53:15 15.7 32 24.8
002F1E77 2019-04-23 01:18:09 15.7 32 24.7
002F1E77 2019-04-23 00:43:02 15.7 32 24.6
002F1E77 2019-04-23 00:07:55 15.7 32 24.7
002F1E77 2019-04-22 23:32:48 15.7 32 24.6
002F1E77 2019-04-22 22:57:40 15.7 32 24.7
002F1E77 2019-04-22 22:22:33 15.8 32 24.7
002F1E77 2019-04-22 21:47:26 15.9 32 24.7
002F1E77 2019-04-22 21:12:19 15.9 32 24.7
002F1E77 2019-04-22 20:37:14 15.9 32 24.7
002F1E77 2019-04-22 20:02:05 15.9 32 24.7
002F1E77 2019-04-22 19:26:58 15.9 32 24.6
002F1E77 2019-04-22 18:51:51 16 32 24.7
002F1E77 2019-04-22 18:16:46 15.9 32 24.7
002F1E77 2019-04-22 17:41:38 15.9 32 24.7
002F1E77 2019-04-22 17:06:30 15.9 32 24.6
002F1E77 2019-04-22 16:31:21 15.9 32 24.6
002F1E77 2019-04-22 15:56:13 15.9 32 24.5
002F1E77 2019-04-22 15:21:05 15.9 32 24.5
002F1E77 2019-04-22 14:45:56 15.9 32 24.4
002F1E77 2019-04-22 14:10:48 15.8 32 24.4
002F1E77 2019-04-22 13:35:40 15.8 32 24.4
002F1E77 2019-04-22 13:00:31 15.7 32 24.5
002F1E77 2019-04-22 12:25:24 15.7 32 24.4
002F1E77 2019-04-22 11:50:15 15.7 32 24.4
002F1E77 2019-04-22 11:15:09 15.7 32 24.3
002F1E77 2019-04-22 10:40:01 15.7 32 24.3
002F1E77 2019-04-22 10:04:54 15.7 31 24.4
002F1E77 2019-04-22 09:29:46 15.7 31 24.3
002F1E77 2019-04-22 08:54:38 15.7 31 24.3
002F1E77 2019-04-22 08:19:29 15.7 31 24.2
002F1E77 2019-04-22 07:44:21 15.7 31 24.3
002F1E77 2019-04-22 07:09:13 15.7 31 24.2
002F1E77 2019-04-22 06:34:05 15.7 31 24.2
002F1E77 2019-04-22 05:58:58 15.7 31 24.2
002F1E77 2019-04-22 05:23:51 15.7 31 24.2
002F1E77 2019-04-22 04:48:42 15.7 31 24.1
002F1E77 2019-04-22 04:13:35 15.7 31 24.1
002F1E77 2019-04-22 03:38:28 15.6 31 24
002F1E77 2019-04-22 03:03:22 15.7 31 23.9
002F1E77 2019-04-22 02:28:14 15.5 31 24
002F1E77 2019-04-22 01:53:07 15.5 31 23.9
002F1E77 2019-04-22 01:17:59 15.5 31 24
002F1E77 2019-04-22 00:42:51 15.5 31 24
002F1E77 2019-04-22 00:07:43 15.5 31 24
002F1E77 2019-04-21 23:32:37 15.5 31 24
002F1E77 2019-04-21 22:57:29 15.5 31 24.1
002F1E77 2019-04-21 22:22:21 15.5 31 24
002F1E77 2019-04-21 21:47:12 15.5 31 24
002F1E77 2019-04-21 21:12:04 15.5 31 24
002F1E77 2019-04-21 20:36:56 15.5 31 24.1
002F1E77 2019-04-21 20:01:48 15.5 31 24
002F1E77 2019-04-21 19:26:39 15.5 31 23.9
002F1E77 2019-04-21 18:51:32 15.5 31 23.9
002F1E77 2019-04-21 18:16:24 15.5 31 24
002F1E77 2019-04-21 17:41:16 15.5 31 24.1
002F1E77 2019-04-21 17:06:08 15.5 31 24
002F1E77 2019-04-21 16:31:00 15.5 31 24.1
002F1E77 2019-04-21 15:55:52 15.5 31 24
002F1E77 2019-04-21 15:20:44 15.5 31 24
002F1E77 2019-04-21 14:45:35 15.5 31 24
002F1E77 2019-04-21 14:10:26 15.5 31 24.1
002F1E77 2019-04-21 13:35:17 15.5 31 24.1
002F1E77 2019-04-21 13:00:07 15.5 31 24.1
002F1E77 2019-04-21 12:24:58 15.5 31 24.1
002F1E77 2019-04-21 11:49:49 15.5 31 24.2
002F1E77 2019-04-21 11:14:41 15.5 30 24.2
002F1E77 2019-04-21 10:39:34 15.5 30 24.2
002F1E77 2019-04-21 10:04:27 15.6 30 24.2
002F1E77 2019-04-21 09:29:21 15.7 30 24.2
002F1E77 2019-04-21 08:54:14 15.7 30 24.2
002F1E77 2019-04-21 08:19:07 15.7 30 23.9
002F1E77 2019-04-21 07:44:00 15.7 30 23.9
002F1E77 2019-04-21 07:08:53 15.7 30 23.9
002F1E77 2019-04-21 06:33:48 15.7 30 23.9
002F1E77 2019-04-21 05:58:41 15.7 30 24
002F1E77 2019-04-21 05:23:34 15.7 30 24.2
002F1E77 2019-04-21 04:48:27 15.7 30 24
002F1E77 2019-04-21 04:13:20 15.7 30 23.9
002F1E77 2019-04-21 03:38:13 15.6 30 23.9
002F1E77 2019-04-21 03:03:07 15.7 30 23.9
002F1E77 2019-04-21 02:27:59 15.6 30 23.8
002F1E77 2019-04-21 01:52:52 15.6 30 23.9
002F1E77 2019-04-21 01:17:45 15.5 30 23.9
002F1E77 2019-04-21 00:42:37 15.5 30 23.8
002F1E77 2019-04-21 00:07:29 15.5 30 23.8
002F1E77 2019-04-20 23:32:22 15.5 30 23.8
002F1E77 2019-04-20 22:57:15 15.5 30 23.8
002F1E77 2019-04-20 22:22:08 15.5 30 23.7
002F1E77 2019-04-20 21:47:00 15.5 30 23.7
002F1E77 2019-04-20 21:11:53 15.6 30 23.7
002F1E77 2019-04-20 20:36:44 15.5 30 23.8
002F1E77 2019-04-20 20:01:35 15.6 30 23.8
002F1E77 2019-04-20 19:26:25 15.6 30 23.9
002F1E77 2019-04-20 18:51:15 15.5 30 24
002F1E77 2019-04-20 18:16:05 15.6 30 24.1
002F1E77 2019-04-20 17:40:57 15.5 30 24.2
002F1E77 2019-04-20 17:05:49 15.5 30 24.4
002F1E77 2019-04-20 16:30:41 15.6 30 24.4
002F1E77 2019-04-20 15:55:32 15.6 30 24.3
002F1E77 2019-04-20 15:20:22 15.5 30 24.4
002F1E77 2019-04-20 14:45:14 15.5 30 24.5
002F1E77 2019-04-20 14:10:04 15.5 29 24.5
002F1E77 2019-04-20 13:34:56 15.5 29 24.5
002F1E77 2019-04-20 12:59:47 15.5 29 24.5
002F1E77 2019-04-20 12:24:38 15.5 29 24.4
002F1E77 2019-04-20 11:49:29 15.7 29 24.3
002F1E77 2019-04-20 11:14:20 15.7 29 24.3
002F1E77 2019-04-20 10:39:11 15.7 29 24.4
002F1E77 2019-04-20 10:04:03 15.7 29 24.4
002F1E77 2019-04-20 09:28:53 15.7 29 24.4
002F1E77 2019-04-20 08:53:44 15.7 29 24.4
002F1E77 2019-04-20 08:18:35 15.7 29 24.4
002F1E77 2019-04-20 07:43:26 15.8 29 24.4
002F1E77 2019-04-20 07:08:18 15.7 29 24.4
002F1E77 2019-04-20 06:33:09 15.7 29 24.4
002F1E77 2019-04-20 05:58:00 15.7 29 24.4
002F1E77 2019-04-20 05:22:51 15.7 29 24.3
002F1E77 2019-04-20 04:47:43 15.7 29 24.2
002F1E77 2019-04-20 04:12:35 15.9 29 24.2
002F1E77 2019-04-20 03:37:27 15.9 29 24.1
002F1E77 2019-04-20 03:02:20 15.9 29 24
002F1E77 2019-04-20 02:27:13 15.9 29 24
002F1E77 2019-04-20 01:52:05 15.9 29 24
002F1E77 2019-04-20 01:16:58 15.9 29 24.2
002F1E77 2019-04-20 00:41:50 16 29 24.1
002F1E77 2019-04-20 00:06:42 16.1 29 24.2
002F1E77 2019-04-19 23:31:34 16.1 29 24.2
002F1E77 2019-04-19 22:56:26 16.1 29 24.2
002F1E77 2019-04-19 22:21:19 16.1 29 24.4
002F1E77 2019-04-19 21:46:10 16.1 29 24.4
002F1E77 2019-04-19 21:11:03 16.1 29 24.3
002F1E77 2019-04-19 20:35:56 16.1 29 24.1
002F1E77 2019-04-19 20:00:48 16.1 29 24.2
002F1E77 2019-04-19 19:25:42 16.1 29 24.1
002F1E77 2019-04-19 18:50:34 16.1 29 24.1
002F1E77 2019-04-19 18:15:26 16.1 29 24.1
002F1E77 2019-04-19 17:40:18 16.1 29 24.2
002F1E77 2019-04-19 17:05:08 16.1 29 24.2
002F1E77 2019-04-19 16:30:00 16.1 29 24.1
002F1E77 2019-04-19 15:54:53 16.1 28 24.1
002F1E77 2019-04-19 15:19:45 16 28 24.2
002F1E77 2019-04-19 14:44:38 15.9 28 24.3
002F1E77 2019-04-19 14:09:30 15.9 28 24.3
002F1E77 2019-04-19 13:34:22 15.9 28 24.3
002F1E77 2019-04-19 12:59:15 15.9 28 24.4
002F1E77 2019-04-19 12:24:06 15.9 28 24.2
002F1E77 2019-04-19 11:48:58 15.9 28 24.2
002F1E77 2019-04-19 11:13:50 15.9 28 24.1
002F1E77 2019-04-19 10:38:41 15.9 28 24.2
002F1E77 2019-04-19 10:03:32 15.9 28 24.1
002F1E77 2019-04-19 09:28:24 15.9 28 24
002F1E77 2019-04-19 08:53:16 15.9 28 23.9
002F1E77 2019-04-19 08:18:07 15.9 28 23.8
002F1E77 2019-04-19 07:42:59 15.9 28 23.7
002F1E77 2019-04-19 07:07:50 15.9 28 23.7
002F1E77 2019-04-19 06:32:46 15.9 28 23.9
002F1E77 2019-04-19 05:57:33 15.9 28 24
002F1E77 2019-04-19 05:22:24 16 28 24.1
002F1E77 2019-04-19 04:47:15 16 28 24.2
002F1E77 2019-04-19 04:12:05 16.1 28 24.1
002F1E77 2019-04-19 03:36:57 16.1 28 24.2
002F1E77 2019-04-19 03:01:49 16.1 28 24.2
002F1E77 2019-04-19 02:26:41 16.1 27 24.1
002F1E77 2019-04-19 01:51:32 16.1 27 24.1
002F1E77 2019-04-19 01:16:22 16.3 27 24.1
002F1E77 2019-04-19 00:41:13 16.3 27 24.1
002F1E77 2019-04-19 00:06:05 16.3 27 24
002F1E77 2019-04-18 23:30:55 16.5 27 23.9
002F1E77 2019-04-18 22:55:47 16.5 27 23.8
002F1E77 2019-04-18 22:20:38 16.5 27 23.8
002F1E77 2019-04-18 21:45:28 16.5 27 23.8
002F1E77 2019-04-18 21:10:20 16.5 27 23.8
002F1E77 2019-04-18 20:35:11 16.5 27 23.7
002F1E77 2019-04-18 20:00:03 16.5 27 23.7
002F1E77 2019-04-18 19:24:55 16.6 27 23.7
002F1E77 2019-04-18 18:49:47 16.6 27 23.7
002F1E77 2019-04-18 18:14:37 16.5 27 23.8
002F1E77 2019-04-18 17:39:28 16.5 27 23.8
002F1E77 2019-04-18 17:04:21 16.5 27 23.9
002F1E77 2019-04-18 16:29:13 16.5 27 23.8
002F1E77 2019-04-18 15:54:05 16.4 27 23.7
002F1E77 2019-04-18 15:18:56 16.3 27 23.7
002F1E77 2019-04-18 14:43:46 16.3 27 23.5
002F1E77 2019-04-18 14:08:37 16.2 27 23.3
002F1E77 2019-04-18 13:33:28 16.1 27 23.3
002F1E77 2019-04-18 12:58:20 16.1 27 23.1
002F1E77 2019-04-18 12:23:12 16.1 27 22.9
002F1E77 2019-04-18 11:48:04 16.1 27 22.9
002F1E77 2019-04-18 11:12:56 16.2 26 22.9
002F1E77 2019-04-18 10:37:49 16.1 26 22.7
002F1E77 2019-04-18 10:02:41 16.1 26 22.5
002F1E77 2019-04-18 09:27:33 16.1 26 22.3
002F1E77 2019-04-18 08:52:25 16.1 26 22.2
002F1E77 2019-04-18 08:17:17 16.2 26 22.2
002F1E77 2019-04-18 07:42:10 16.1 26 22.1
002F1E77 2019-04-18 07:07:02 16.2 26 22
002F1E77 2019-04-18 06:31:55 16.1 26 21.9
002F1E77 2019-04-18 05:56:47 16.1 26 21.7
002F1E77 2019-04-18 05:21:39 16.1 26 21.6
002F1E77 2019-04-18 04:46:31 16.1 26 21.9
002F1E77 2019-04-18 04:11:24 16.1 26 22.1
002F1E77 2019-04-18 03:36:15 16.1 26 22.2
002F1E77 2019-04-18 03:01:08 16.3 26 22
002F1E77 2019-04-18 02:25:59 16.3 26 22.1
002F1E77 2019-04-18 01:50:51 16.4 25 22.2
002F1E77 2019-04-18 01:15:43 16.5 25 22.3
002F1E77 2019-04-18 00:40:34 16.5 25 22
002F1E77 2019-04-18 00:05:25 16.6 25 22.2
002F1E77 2019-04-17 23:30:17 16.6 25 22.5
002F1E77 2019-04-17 22:55:08 16.7 25 22.6
002F1E77 2019-04-17 22:20:00 16.8 25 22.5
002F1E77 2019-04-17 21:44:53 16.6 25 22.5
002F1E77 2019-04-17 21:09:45 16.5 25 22.6
002F1E77 2019-04-17 20:34:36 16.5 25 22.6
002F1E77 2019-04-17 19:59:28 16.5 25 23.7
002F1E77 2019-04-17 19:24:20 16.5 25 24.3
002F1E77 2019-04-17 18:49:12 16.5 25 24.4
002F1E77 2019-04-17 18:14:04 16.5 25 24.5
002F1E77 2019-04-17 17:38:56 16.5 25 24.6
002F1E77 2019-04-17 17:03:48 16.5 25 24.6
002F1E77 2019-04-17 16:28:41 16.5 25 24.6
002F1E77 2019-04-17 15:53:35 16.5 24 24.7
002F1E77 2019-04-17 15:18:28 16.6 24 24.6
002F1E77 2019-04-17 14:43:21 16.7 24 24.5
002F1E77 2019-04-17 14:08:15 16.8 24 24.4
002F1E77 2019-04-17 13:33:12 16.8 24 24.5
002F1E77 2019-04-17 12:58:00 16.8 24 24.4
002F1E77 2019-04-17 12:22:52 16.8 24 24.2
002F1E77 2019-04-17 11:47:43 16.8 24 24.1
002F1E77 2019-04-17 11:12:36 16.8 24 24
002F1E77 2019-04-17 10:37:30 16.8 24 24.5
002F1E77 2019-04-17 10:02:21 16.8 24 24.5
002F1E77 2019-04-17 09:27:13 17 23 24.2
002F1E77 2019-04-17 08:52:06 17 23 24.2
002F1E77 2019-04-17 08:16:59 17.2 23 24.1
002F1E77 2019-04-17 07:41:51 17.3 23 24
002F1E77 2019-04-17 07:06:43 17.4 23 24.1
002F1E77 2019-04-17 06:31:36 17.6 23 24
002F1E77 2019-04-17 05:56:28 17.6 23 24
002F1E77 2019-04-17 05:21:21 17.6 23 23.3
002F1E77 2019-04-17 04:46:12 17.6 23 22.4
002F1E77 2019-04-17 04:11:05 17.7 23 22.2
002F1E77 2019-04-17 03:35:59 17.8 23 21.9
002F1E77 2019-04-17 03:00:51 17.8 23 21.7
002F1E77 2019-04-17 02:25:44 17.8 23 21.6
002F1E77 2019-04-17 01:50:37 18 23 21.6
002F1E77 2019-04-17 01:15:30 18 23 21.4
002F1E77 2019-04-17 00:40:23 18 23 21.5
002F1E77 2019-04-17 00:05:16 18 22 21.3
002F1E77 2019-04-16 23:30:08 18 22 21.4
002F1E77 2019-04-16 22:55:01 18.2 22 21.5
002F1E77 2019-04-16 22:19:52 18.5 22 21.8
002F1E77 2019-04-16 21:44:45 18.7 22 21.9
002F1E77 2019-04-16 21:09:37 18.9 22 22.2
002F1E77 2019-04-16 20:34:29 18.9 22 22.4
002F1E77 2019-04-16 19:59:23 19.1 22 21.6
002F1E77 2019-04-16 19:24:16 19.1 22 21.7
002F1E77 2019-04-16 18:49:09 19.1 22 21.8
002F1E77 2019-04-16 18:14:02 19.3 21 22
002F1E77 2019-04-16 17:38:54 19.5 21 22
002F1E77 2019-04-16 17:03:50 19.7 21 22.3
002F1E77 2019-04-16 15:53:30 20.1 21 22.3
002F1E77 2019-04-16 15:18:21 20.4 21 22.2
002F1E77 2019-04-16 14:43:13 20.8 21 22
002F1E77 2019-04-16 13:32:57 21 22 22
002F1E77 2019-04-16 12:57:49 21 22 22.3
002F1E77 2019-04-16 12:22:40 21 22 22.3
002F1E77 2019-04-16 11:47:31 21 22 22.5
002F1E77 2019-04-16 11:12:22 20.9 22 22.7
002F1E77 2019-04-16 10:37:13 20.9 22 22.8
002F1E77 2019-04-16 10:02:06 20.8 22 22.8
002F1E77 2019-04-16 09:26:58 20.8 21 23.2
002F1E77 2019-04-16 08:51:50 20.9 21 23.2
002F1E77 2019-04-16 08:16:42 20.8 21 23.2
002F1E77 2019-04-16 07:41:35 20.8 21 23.1
002F1E77 2019-04-16 07:06:27 20.9 21 22.9
002F1E77 2019-04-16 06:31:19 20.9 21 23
002F1E77 2019-04-16 05:56:11 20.8 21 23.1
002F1E77 2019-04-16 05:21:02 20.9 21 23.2
002F1E77 2019-04-16 04:45:54 20.9 21 23
002F1E77 2019-04-16 04:10:46 21 21 22.8
002F1E77 2019-04-16 03:35:37 21 21 22.8
002F1E77 2019-04-16 03:00:28 21 21 22.6
002F1E77 2019-04-16 02:25:20 21 21 22.8
002F1E77 2019-04-16 01:50:11 21 21 23
002F1E77 2019-04-16 01:15:03 21 21 23
002F1E77 2019-04-16 00:39:56 21 21 23.6
002F1E77 2019-04-16 00:04:47 21 20 24.3
002F1E77 2019-04-15 23:29:39 21 20 24.4
002F1E77 2019-04-15 22:54:32 21 20 24.5
002F1E77 2019-04-15 22:19:22 21 20 24.8
002F1E77 2019-04-15 21:44:13 21 20 24.9
002F1E77 2019-04-15 21:09:05 21 20 24.9
002F1E77 2019-04-15 20:33:58 21 20 24.9
002F1E77 2019-04-15 19:58:50 21 20 24.9
002F1E77 2019-04-15 19:23:43 21.1 20 25.2
002F1E77 2019-04-15 18:48:36 21.1 20 25
002F1E77 2019-04-15 18:13:29 21.2 20 25.1
002F1E77 2019-04-15 17:38:23 21.2 19 25.2
002F1E77 2019-04-15 17:03:16 21.3 19 25.3
002F1E77 2019-04-15 16:28:12 21.4 19 25.6
002F1E77 2019-04-15 15:53:03 21.5 19 25.5
002F1E77 2019-04-15 15:17:56 21.6 19 25.6
002F1E77 2019-04-15 14:42:50 21.7 19 25.5
002F1E77 2019-04-15 14:07:43 21.9 18 25.6
002F1E77 2019-04-15 13:32:37 22 18 26
002F1E77 2019-04-15 12:57:29 22.1 18 26
002F1E77 2019-04-15 12:22:22 22.3 17 26.1
002F1E77 2019-04-15 11:47:13 22.4 16 26.1
002F1E77 2019-04-15 11:12:05 22.3 16 26.1
002F1E77 2019-04-15 10:36:55 22.3 16 26.1
002F1E77 2019-04-15 10:01:46 22.3 17 25.8
002F1E77 2019-04-15 09:26:37 22.1 17 25.5
002F1E77 2019-04-15 08:51:29 22.1 17 25.7
002F1E77 2019-04-15 08:16:21 22.1 16 25.7
002F1E77 2019-04-15 07:41:12 21.9 17 25.6
002F1E77 2019-04-15 07:06:02 21.9 17 25.7
002F1E77 2019-04-15 06:30:52 21.9 17 25.7
002F1E77 2019-04-15 05:55:44 21.9 17 25.7
002F1E77 2019-04-15 05:20:34 21.9 17 25.8
002F1E77 2019-04-15 04:45:24 21.9 17 25.6
002F1E77 2019-04-15 04:10:16 21.9 17 25.7
002F1E77 2019-04-15 03:35:07 21.9 17 25.8
002F1E77 2019-04-15 02:59:58 21.9 17 25.9
002F1E77 2019-04-15 02:24:49 21.9 17 25.9
002F1E77 2019-04-15 01:49:41 21.9 17 25.8
002F1E77 2019-04-15 01:14:33 21.9 17 25.8
002F1E77 2019-04-15 00:39:25 21.9 17 25.8
002F1E77 2019-04-15 00:04:16 21.9 17 25.9
002F1E77 2019-04-14 23:29:07 21.9 17 25.8
002F1E77 2019-04-14 22:54:00 21.9 17 25.6
002F1E77 2019-04-14 22:18:51 21.9 17 25.6
002F1E77 2019-04-14 21:43:44 21.9 18 25.7
002F1E77 2019-04-14 21:08:35 21.9 18 25.8
002F1E77 2019-04-14 20:33:27 22 18 26.1
002F1E77 2019-04-14 19:58:19 22.1 18 26.2
002F1E77 2019-04-14 19:23:10 22.1 18 26.3
002F1E77 2019-04-14 18:48:00 22.1 18 26.6
002F1E77 2019-04-14 18:12:51 21.9 18 26.4
002F1E77 2019-04-14 17:37:42 21.9 18 26.4
002F1E77 2019-04-14 17:02:33 21.9 18 26.6
002F1E77 2019-04-14 16:27:24 21.9 18 26.6
002F1E77 2019-04-14 15:52:14 21.9 18 26.7
002F1E77 2019-04-14 15:17:04 21.9 18 26.7
002F1E77 2019-04-14 14:41:55 21.9 18 26.6
002F1E77 2019-04-14 14:06:44 21.9 18 26.6
002F1E77 2019-04-14 13:31:33 21.9 18 26.6
002F1E77 2019-04-14 12:56:22 21.9 18 26.5
002F1E77 2019-04-14 12:21:12 21.9 18 26.4
002F1E77 2019-04-14 11:46:03 21.9 18 26.4
002F1E77 2019-04-14 11:10:53 21.9 18 26.5
002F1E77 2019-04-14 10:35:43 21.9 18 26.6
002F1E77 2019-04-14 10:00:32 21.9 18 26.6
002F1E77 2019-04-14 09:25:22 21.9 18 26.8
002F1E77 2019-04-14 08:50:13 21.9 18 26.8
002F1E77 2019-04-14 08:15:02 21.9 18 26.8
002F1E77 2019-04-14 07:39:52 21.9 18 26.8
002F1E77 2019-04-14 07:04:43 21.9 18 26.8
002F1E77 2019-04-14 06:29:34 21.9 18 26.7
002F1E77 2019-04-14 05:54:24 21.9 18 26.4
002F1E77 2019-04-14 05:19:14 21.9 18 26.4
002F1E77 2019-04-14 04:44:04 21.9 18 26.3
002F1E77 2019-04-14 04:08:54 21.9 18 26.3
002F1E77 2019-04-14 03:33:45 21.9 18 26.3
002F1E77 2019-04-14 02:58:35 21.9 18 26.4
002F1E77 2019-04-14 02:23:24 22.1 18 26.1
002F1E77 2019-04-14 01:48:14 22.1 18 26
002F1E77 2019-04-14 01:13:04 22.1 18 26
002F1E77 2019-04-14 00:37:54 22.1 18 26
002F1E77 2019-04-14 00:02:43 22.1 18 26
002F1E77 2019-04-13 23:27:31 22.1 18 26
002F1E77 2019-04-13 22:52:20 22.1 17 26.2
002F1E77 2019-04-13 22:17:09 22.1 17 26.2
002F1E77 2019-04-13 21:41:58 22.1 17 26.5
002F1E77 2019-04-13 21:06:47 22.1 17 26.8
002F1E77 2019-04-13 20:31:36 22.1 17 26.7
002F1E77 2019-04-13 19:56:25 22.1 17 26.5
002F1E77 2019-04-13 19:21:15 22.2 17 26.5
002F1E77 2019-04-13 18:46:04 22.2 18 26.4
002F1E77 2019-04-13 18:10:54 22.3 18 26.4
002F1E77 2019-04-13 17:35:43 22.3 18 26.4
002F1E77 2019-04-13 17:00:32 22.3 18 26.4
002F1E77 2019-04-13 16:25:21 22.3 18 26.5
002F1E77 2019-04-13 15:50:10 22.3 18 26.6
002F1E77 2019-04-13 15:14:58 22.3 18 26.6
002F1E77 2019-04-13 14:39:45 22.3 18 26.5
002F1E77 2019-04-13 14:04:34 22.3 18 26.4
002F1E77 2019-04-13 13:29:24 22.3 18 26.2
002F1E77 2019-04-13 12:54:13 22.3 18 26.2
002F1E77 2019-04-13 12:19:03 22.3 18 26.2
002F1E77 2019-04-13 11:43:52 22.3 18 26.4
002F1E77 2019-04-13 11:08:41 22.3 18 26.4
002F1E77 2019-04-13 10:33:29 22.3 18 26.3
002F1E77 2019-04-13 09:58:19 22.3 18 26.3
002F1E77 2019-04-13 09:23:07 22.3 18 26.3
002F1E77 2019-04-13 08:47:57 22.3 17 26.6
002F1E77 2019-04-13 08:12:44 22.3 17 26.4
002F1E77 2019-04-13 07:37:33 22.3 17 26.5
002F1E77 2019-04-13 07:02:22 22.3 17 26.3
002F1E77 2019-04-13 06:27:11 22.3 17 25.9
002F1E77 2019-04-13 05:52:00 22.3 17 25.8
002F1E77 2019-04-13 05:16:50 22.3 17 25.9
002F1E77 2019-04-13 04:41:40 22.3 17 26.2
002F1E77 2019-04-13 04:06:29 22.3 17 26.1
002F1E77 2019-04-13 03:31:18 22.5 17 26
002F1E77 2019-04-13 02:56:07 22.5 18 26
002F1E77 2019-04-13 02:20:57 22.5 18 26
002F1E77 2019-04-13 01:45:48 22.5 18 26
002F1E77 2019-04-13 01:10:38 22.5 18 26
002F1E77 2019-04-13 00:35:28 22.5 18 26
002F1E77 2019-04-13 00:00:19 22.5 18 26
002F1E77 2019-04-12 23:25:09 22.6 18 26.1
002F1E77 2019-04-12 22:49:58 22.7 18 26.3
002F1E77 2019-04-12 22:14:48 22.7 18 26.2
002F1E77 2019-04-12 21:39:37 22.8 18 26.3
002F1E77 2019-04-12 21:04:26 22.9 19 26.1
002F1E77 2019-04-12 20:29:15 22.9 18 26.2
002F1E77 2019-04-12 19:54:04 22.8 18 26.2
002F1E77 2019-04-12 19:18:53 22.9 17 26.3
002F1E77 2019-04-12 18:43:42 22.9 17 26.4
002F1E77 2019-04-12 18:08:31 23.2 16 25.7
002F1E77 2019-04-12 17:33:20 23.2 17 25.7
002F1E77 2019-04-12 16:58:08 23.2 17 25.2
002F1E77 2019-04-12 16:22:55 23.2 18 24.9
002F1E77 2019-04-12 15:47:43 23.1 18 25.4
002F1E77 2019-04-12 15:12:32 22.9 18 25.9
002F1E77 2019-04-12 14:37:21 22.7 18 26.1
002F1E77 2019-04-12 14:02:11 22.3 19 20.4
002F1E77 2019-04-12 13:27:00 21.7 20 15.7